Probability
0 0 0 0 0 0 0 0 0 0 0 0 0 0 0 0 0 0 0 0 0 0 1 3 5 5 6 7 5 4 3 2 1 0 0 0 0 1 2 2 1 1 3 5
0 0 0 0 0 0 0 0 0 0 0 0 0 0 0 0 0 0 0 0 0 0 1 3 4 4 5 5 3 1 1 1 0 0 0 0 0 1 2 2 1 1 3 4
0 0 0 0 0 0 0 0 0 0 0 0 0 0 0 0 0 0 0 0 0 0 1 2 3 4 4 3 1 0 0 0 0 0 0 0 0 0 1 1 1 1 2 3
0 0 0 0 0 0 0 0 0 0 0 0 0 0 0 0 0 0 0 0 0 0 0 1 2 3 3 2 1 0 0 0 0 0 0 0 0 0 0 0 0 0 1 2
0 0 0 0 0 0 0 0 0 0 0 0 0 0 0 0 0 0 0 0 0 0 0 0 1 2 2 1 1 0 1 1 0 0 0 0 0 0 0 0 0 0 0 1
0 0 0 0 0 0 0 0 0 0 0 0 0 0 0 0 0 0 0 0 0 0 1 1 1 2 2 1 1 1 2 2 1 1 2 1 1 0 0 0 0 0 0 0
0 0 0 0 0 0 0 0 0 0 0 0 0 0 0 0 0 0 0 0 0 0 1 1 1 2 2 1 0 1 2 3 3 3 3 3 2 1 1 0 0 0 0 0
0 0 0 0 0 0 0 0 0 0 0 0 0 0 0 0 0 0 0 0 0 0 1 1 0 1 1 1 0 0 1 2 2 2 2 3 3 3 2 1 0 0 0 0
0 0 0 0 0 0 0 0 0 0 0 0 0 0 0 0 0 0 0 0 0 0 0 0 0 0 0 0 0 0 0 1 1 1 1 1 2 2 2 1 0 0 0 0
0 0 0 0 0 0 0 0 0 0 0 0 0 0 0 0 0 0 0 0 0 0 0 0 0 0 0 0 0 0 0 0 0 0 0 0 1 1 1 0 0 0 0 0
0 0 0 0 0 0 0 0 0 0 0 0 0 0 0 0 0 0 0 0 0 0 0 0 0 0 0 0 0 0 0 0 0 0 0 0 0 0 0 0 0 0 0 0
0 0 0 0 0 0 0 0 0 0 0 0 0 0 0 0 0 0 0 0 0 0 0 0 0 0 0 0 0 0 0 0 0 0 0 0 0 0 0 0 0 0 0 0
0 0 0 0 0 0 0 0 0 0 0 0 0 0 0 0 0 0 0 0 0 0 0 0 0 0 0 0 0 0 0 0 0 0 0 0 0 0 0 0 0 0 0 0
0 0 0 0 0 0 0 0 0 0 0 0 0 0 0 0 0 0 0 0 0 0 0 0 0 0 0 0 0 0 0 0 0 0 0 0 0 0 0 0 0 0 0 0
0 0 0 0 0 0 0 0 0 0 0 0 0 0 0 0 0 0 0 0 0 0 0 0 0 0 0 0 0 0 0 0 0 0 0 0 0 0 0 0 0 0 0 0
0 0 0 0 0 0 0 0 0 0 0 0 0 0 0 0 0 0 0 0 0 0 0 0 0 0 0 0 0 0 0 0 0 0 0 0 0 0 0 0 0 0 0 0
0 0 0 0 0 0 0 0 0 0 0 0 0 0 0 0 0 0 0 0 0 0 0 0 0 0 0 0 0 0 0 0 0 0 0 0 0 0 0 0 0 0 0 0
0 0 0 0 0 0 0 0 0 0 0 0 0 0 0 0 0 0 0 0 0 0 0 0 0 0 0 0 0 0 0 0 0 0 0 0 0 0 0 0 0 0 0 0
0 0 0 0 0 0 0 0 0 0 0 0 0 0 0 0 0 0 0 0 0 0 0 0 0 0 0 0 0 0 0 0 0 0 0 0 0 0 0 0 0 0 0 0
0 0 0 0 0 0 0 0 0 0 0 0 0 0 0 0 0 0 0 0 0 0 0 0 0 0 0 0 0 0 0 0 0 0 0 0 0 0 0 0 0 0 0 0
0 0 0 0 0 0 0 0 0 0 0 0 0 0 0 0 0 0 0 0 0 0 0 0 0 0 0 0 0 0 0 0 0 0 0 0 0 0 0 0 0 0 0 0
0 0 0 0 0 0 0 0 0 0 0 0 0 0 0 0 0 0 0 0 0 0 0 0 0 0 0 0 0 0 0 0 0 0 0 0 0 0 0 0 0 0 0 0
0 0 0 0 0 0 0 0 0 0 0 0 0 0 0 0 0 0 0 0 0 0 0 0 0 0 0 0 0 0 0 0 0 0 0 0 0 0 0 0 0 0 0 0
0 0 0 0 0 0 0 0 0 0 0 0 0 0 0 0 0 0 0 0 0 0 0 0 0 0 0 0 0 0 0 0 0 0 0 0 0 0 0 0 0 0 0 0
0 0 0 0 0 0 0 0 0 0 0 0 0 0 0 0 0 0 0 0 0 0 0 0 0 0 0 0 0 0 0 0 0 0 0 0 0 0 0 0 0 0 0 0
0 0 0 0 0 0 0 0 0 0 0 0 0 0 0 0 0 0 0 0 0 0 0 0 0 0 0 0 0 0 0 0 0 0 0 0 0 0 0 0 0 0 0 0
Wind_Speed
3 3 0 2 2 2 2 1 2 3 2 0 2 2 2 1 1 2 1 2 1 1 0 1 2 2 2 3 3 2 3 2 2 2 2 1 1 1 1 1 2 2 2 2
4 1 2 1 0 0 1 1 2 2 2 0 1 2 2 1 2 3 3 3 3 1 1 1 1 2 2 2 2 2 2 2 1 1 1 1 1 0 0 1 1 1 2 2
1 2 1 1 1 1 2 3 2 1 3 2 1 2 1 1 1 1 1 1 2 3 2 1 1 0 1 1 1 1 1 1 2 2 2 2 2 2 1 2 1 1 1 1
2 2 2 2 1 0 2 1 1 1 1 1 1 2 4 2 2 2 2 2 2 2 2 2 1 1 0 1 1 1 1 2 2 2 2 3 2 1 1 1 0 0 1 1
2 2 2 1 1 1 1 2 0 0 1 1 1 1 5 0 3 5 4 4 4 3 3 3 2 2 1 0 1 1 2 2 2 2 2 2 2 1 1 1 1 1 1 1
2 2 1 1 1 1 1 3 3 3 3 1 2 3 5 3 5 4 3 4 4 3 2 2 1 1 1 1 2 2 2 2 1 2 2 2 2 2 2 2 1 0 0 1
5 3 3 2 3 3 4 3 3 3 2 4 1 2 7 4 3 3 3 3 3 2 2 1 1 1 1 1 1 1 1 1 1 1 1 1 1 2 2 1 1 0 0 0
2 4 3 3 1 0 1 2 3 2 3 3 1 4 6 2 2 1 1 0 1 1 1 1 1 1 1 1 0 1 1 0 0 0 0 1 1 1 0 1 1 1 1 1
1 3 3 2 1 2 1 1 1 2 1 1 4 5 6 3 3 3 2 2 2 1 0 0 1 1 1 0 0 1 1 0 0 0 0 0 0 0 0 1 0 1 0 0
2 2 4 3 2 3 2 3 3 2 1 2 4 3 4 4 3 3 3 2 2 2 2 2 1 1 1 0 1 0 0 0 0 0 0 0 0 0 0 0 0 0 0 0
1 1 4 3 1 1 2 2 2 2 2 2 2 5 3 3 2 2 2 2 1 2 1 2 2 1 1 1 1 1 1 1 1 0 0 0 0 0 0 0 1 1 0 0
1 2 2 4 2 1 2 2 3 2 1 2 2 6 2 1 1 1 2 2 1 1 1 1 1 2 2 2 2 1 1 1 1 1 0 0 1 0 0 0 1 1 1 1
2 3 2 4 3 2 1 1 2 2 2 2 3 7 2 3 3 3 2 2 1 1 2 2 2 2 2 2 2 2 1 1 1 1 1 1 1 1 1 1 1 1 1 1
3 2 4 6 4 2 2 2 3 3 2 3 6 8 6 4 4 4 4 3 1 1 1 1 2 2 2 2 2 2 2 2 1 1 0 0 1 1 1 1 1 0 1 1
3 1 2 4 4 2 3 5 4 6 6 6 6 6 9 5 3 3 3 2 3 2 2 2 2 2 3 3 3 2 2 2 1 1 1 1 1 1 1 1 1 0 0 0
2 1 0 2 2 2 4 6 5 6 5 7 7 9 7 3 1 2 2 2 3 3 3 3 3 3 3 3 3 3 2 2 1 1 1 1 1 1 1 1 1 0 0 0
1 2 0 3 3 2 6 6 6 4 4 5 7 8 3 3 3 3 3 2 3 3 3 3 3 3 3 3 3 3 3 2 1 1 1 1 1 1 1 1 1 0 0 1
3 3 2 1 3 4 6 1 4 4 5 5 5 5 3 4 3 2 2 2 3 3 3 3 3 3 4 4 3 2 2 1 1 1 1 1 1 1 1 1 1 1 0 1
3 4 3 1 2 7 7 2 2 3 5 3 5 5 3 2 2 2 1 1 2 2 2 3 3 3 3 3 3 2 1 1 1 2 2 2 1 1 1 1 2 1 1 1
2 3 3 3 2 6 5 1 1 1 5 2 3 4 2 1 1 4 2 2 2 2 2 2 2 2 3 3 2 1 1 2 2 3 2 2 2 2 2 2 2 1 1 1
1 1 3 3 4 9 5 2 2 3 6 2 1 2 2 3 4 3 2 2 2 2 2 2 2 2 2 3 1 1 2 2 3 3 2 2 2 2 2 1 1 1 1 1
5 4 4 4 4 9 2 3 5 6 2 1 1 1 2 2 2 2 2 2 2 2 2 2 2 2 3 3 2 2 3 3 3 2 2 2 2 2 1 1 1 1 0 0
6 7 6 8 8 4 3 4 3 1 1 2 1 2 1 2 2 2 2 2 2 2 2 2 2 2 3 3 2 2 3 3 2 2 2 3 3 2 2 1 1 1 0 1
4 3 3 5 7 5 4 3 2 2 2 2 2 2 1 2 2 2 2 2 2 2 2 2 2 2 3 3 3 2 3 3 2 2 3 2 2 2 2 1 1 1 1 1
5 4 4 6 5 4 4 4 4 2 2 2 2 1 1 1 2 2 2 2 2 2 2 2 2 3 4 4 3 3 3 2 2 2 2 2 2 2 2 2 2 2 2 2
6 7 7 7 5 5 5 4 3 3 3 2 2 1 1 1 2 1 2 2 2 2 2 2 2 3 4 3 3 3 3 2 2 2 3 2 2 2 2 2 2 3 3 5
Wind_Direction
17 66 13 247 214 197 174 168 256 258 264 128 200 222 273 239 164 168 162 157 180 225 312 59 58 48 54 58 66 74 71 76 87 85 85 84 60 37 60 47 58 80 82 92
39 5 280 301 56 111 168 194 275 304 346 126 178 258 272 223 195 185 189 196 196 210 24 65 60 46 54 75 80 80 73 68 81 90 113 107 108 56 84 51 38 53 80 91
107 289 321 79 16 17 304 210 219 276 348 23 74 307 255 273 177 155 196 198 205 192 195 201 126 72 61 75 111 105 89 68 49 55 82 76 64 34 26 28 7 357 45 90
352 328 23 59 2 15 295 279 193 259 76 320 80 259 265 252 276 263 249 237 238 220 209 204 191 189 208 216 91 93 90 79 64 77 90 105 106 115 278 260 294 354 47 52
324 356 30 42 316 26 280 349 354 125 124 7 27 184 275 326 265 264 251 242 240 228 214 211 206 201 209 108 96 85 77 72 75 79 92 108 98 81 17 20 62 47 37 56
308 337 359 317 355 83 33 32 40 52 76 272 222 174 273 233 237 262 255 243 231 221 221 223 208 120 74 61 69 71 75 59 57 82 83 93 109 89 67 26 26 52 23 41
351 351 357 16 40 26 44 65 36 12 13 257 178 192 253 257 242 226 240 244 225 201 192 185 151 123 93 82 81 80 89 51 36 81 96 105 131 134 136 178 230 166 36 354
19 323 334 5 64 186 300 116 144 191 223 286 312 232 258 287 296 280 282 312 60 138 152 168 185 175 152 133 103 99 139 297 351 78 112 127 114 142 176 214 193 203 219 228
118 286 326 333 342 125 96 98 146 123 79 289 269 285 302 355 1 13 26 35 18 353 11 41 50 57 76 107 199 202 191 255 275 263 323 87 93 121 219 255 202 200 235 89
150 270 312 321 23 28 90 133 94 105 137 278 289 279 274 307 318 341 353 344 334 357 11 14 30 38 13 348 317 11 140 207 282 330 244 343 255 246 241 226 188 205 249 109
110 142 319 4 55 225 53 66 85 106 156 174 260 272 252 256 260 251 271 291 318 339 349 0 354 359 22 26 31 23 25 24 6 339 291 325 289 313 85 200 217 204 180 169
113 119 285 271 262 205 151 159 146 153 230 191 213 269 302 285 297 271 278 296 337 352 6 18 18 22 24 14 7 5 6 1 329 315 353 349 342 23 54 274 245 192 180 222
134 108 16 348 345 5 43 187 174 136 125 175 206 261 343 18 8 355 335 320 337 359 9 23 29 20 4 352 344 341 338 328 339 353 16 20 5 357 336 300 258 202 178 195
114 125 181 210 237 210 258 246 189 157 187 228 234 257 295 328 337 336 331 326 326 347 1 13 3 351 343 342 341 330 318 326 338 353 17 320 290 293 302 306 270 221 184 177
100 177 231 261 277 250 258 263 217 203 210 220 250 254 273 282 283 292 310 333 357 358 358 348 335 330 335 342 338 329 322 331 331 341 308 282 288 295 316 334 322 20 69 286
88 175 243 294 282 260 278 277 244 234 233 239 263 273 275 282 279 291 305 325 333 329 327 328 330 329 325 326 321 319 315 313 321 314 298 315 319 320 321 322 336 29 21 2
159 146 106 285 315 349 281 251 214 212 221 204 232 252 282 302 285 273 284 298 294 295 309 317 316 310 308 306 300 295 300 309 313 304 313 314 318 307 293 322 337 296 302 338
166 139 142 300 20 250 250 230 192 206 246 229 242 269 267 264 276 270 257 250 277 292 303 307 310 315 316 313 309 304 309 311 312 325 328 315 330 303 297 316 301 283 304 288
180 151 136 142 250 278 290 267 177 200 272 247 242 267 285 295 330 310 288 255 254 271 290 293 302 310 316 315 313 321 331 333 331 319 310 308 301 293 295 299 295 281 281 279
75 110 132 150 205 253 264 285 244 112 289 274 227 251 268 79 299 282 312 326 315 320 321 322 329 336 333 325 327 348 335 335 314 305 303 304 301 286 279 276 283 282 263 271
95 96 172 193 230 264 265 269 126 172 259 301 240 238 210 212 236 283 329 332 321 323 327 344 348 342 329 331 352 351 334 316 307 314 318 318 312 295 279 279 283 272 266 298
181 176 191 175 211 254 227 143 186 223 278 299 288 262 221 250 292 316 327 329 339 343 348 356 351 339 339 350 357 334 318 311 319 327 326 323 320 310 319 308 293 283 234 278
205 196 191 197 218 246 188 201 229 223 241 262 268 288 253 265 284 300 313 323 327 326 335 344 339 331 339 346 346 323 315 321 324 332 326 321 323 318 312 283 275 272 255 263
246 196 199 250 260 258 253 258 264 246 243 267 272 274 240 252 273 284 297 313 322 326 333 339 344 331 326 329 331 317 318 323 324 323 319 318 323 323 318 301 282 262 250 261
221 181 206 250 270 295 268 239 243 254 263 282 294 266 230 238 268 270 288 301 303 314 326 332 319 305 305 317 323 325 329 334 331 322 318 319 319 313 310 303 288 283 260 264
197 186 192 227 220 215 252 245 216 224 241 246 257 283 300 242 255 274 283 286 293 307 320 323 314 305 307 316 320 325 329 335 329 322 319 316 315 311 306 306 318 318 302 303